This is the latest recevied weather packets stored in our database for station/object VA3BOO. If no packets are shown the sender has not sent any weather packets the latest 1 day(s).
| Time | Temp. | Humidity | Pressure | Rain* | Wind** | Luminosity | Snow |
|---|---|---|---|---|---|---|---|
| 1778082904 | 7.22° C | 91% | 1009.8 hPa | 0 mm | - | 271 W/m² | - |
| 1778081404 | 6.67° C | 90% | 1009.7 hPa | 0 mm | - | 194 W/m² | - |
| 1778081104 | 6.67° C | 91% | 1009.7 hPa | 0 mm | - | 237 W/m² | - |
| 1778080804 | 6.11° C | 91% | 1009.6 hPa | 0.25 mm | - | 151 W/m² | - |
| 1778080204 | 6.67° C | 93% | 1009.6 hPa | 0.51 mm | - | 140 W/m² | - |
| 1778079904 | 6.67° C | 92% | 1009.4 hPa | 0.76 mm | - | 105 W/m² | - |
| 1778079604 | 6.11° C | 92% | 1009.7 hPa | 0.76 mm | - | 109 W/m² | - |
| 1778079304 | 6.11° C | 92% | 1009.3 hPa | 1.02 mm | - | 112 W/m² | - |
| 1778079004 | 6.67° C | 92% | 1009.5 hPa | 1.02 mm | - | 96 W/m² | - |
| 1778078404 | 6.11° C | 93% | 1009.5 hPa | 1.27 mm | - | 140 W/m² | - |
| 1778078104 | 6.67° C | 94% | 1009.5 hPa | 1.52 mm | - | 139 W/m² | - |
| 1778077804 | 6.67° C | 94% | 1009.3 hPa | 1.52 mm | - | 155 W/m² | - |
| 1778077504 | 6.67° C | 95% | 1009.4 hPa | 1.78 mm | - | 161 W/m² | - |
| 1778076904 | 6.11° C | 95% | 1009.4 hPa | 2.03 mm | - | 156 W/m² | - |
| 1778075404 | 6.11° C | 95% | 1009.7 hPa | 2.03 mm | - | 90 W/m² | - |
| 1778074504 | 6.11° C | 95% | 1009.2 hPa | 2.03 mm | - | 74 W/m² | - |
| 1778074204 | 6.11° C | 95% | 1009.3 hPa | 2.29 mm | - | 73 W/m² | - |
| 1778073604 | 6.11° C | 96% | 1009.4 hPa | 2.03 mm | - | 72 W/m² | - |
| 1778073304 | 6.11° C | 96% | 1009.4 hPa | 1.78 mm | - | 67 W/m² | - |
| 1778073004 | 6.11° C | 96% | 1009.4 hPa | 2.03 mm | - | 61 W/m² | - |
| 1778072704 | 6.11° C | 96% | 1009.3 hPa | 1.78 mm | - | 57 W/m² | - |
| 1778072104 | 6.11° C | 96% | 1009.6 hPa | 1.78 mm | - | 53 W/m² | - |
| 1778071804 | 6.11° C | 96% | 1009.4 hPa | 1.52 mm | - | 50 W/m² | - |
| 1778071504 | 6.11° C | 96% | 1009.4 hPa | 1.27 mm | - | 53 W/m² | - |
| 1778070304 | 5.56° C | 95% | 1009.6 hPa | 1.52 mm | - | 51 W/m² | - |
* Rain latest hour (hover to see other rain measurements)
** Current wind speed in m/s (hover to see current wind gust speed)